GW4659 Weather Reports


time (UTC)temp
C
wind
direction
speed
KPH
gust
KPH
rain 1hr
cm
rain 24hr
cm
rain mn
cm
humidity
%
barometer
mb
20260906123002 23 234 0.0 3.2 0.00 0.08 0.08 93 1014.3
20260906122003 23 231 0.0 0.0 0.00 0.08 0.08 93 1013.8
20260906121003 23 228 0.0 1.6 0.00 0.08 0.08 94 1013.7
20260906120002 23 228 0.0 1.6 0.03 0.08 0.08 93 1013.4
20260906114002 23 228 0.0 0.0 0.03 0.08 0.08 95 1013.7
20260906113002 23 228 0.0 0.0 0.03 0.08 0.08 94 1013.7
20260906112002 23 228 0.0 1.6 0.03 0.08 0.08 91 1013.7
20260906111004 23 146 0.0 1.6 0.05 0.08 0.08 91 1013.7
20260906110005 23 119 0.0 0.0 0.03 0.05 0.05 92 1013.8
20260906105002 23 181 0.0 0.0 0.05 0.05 0.05 92 1013.7
20260906104003 23 181 0.0 0.0 0.05 0.05 0.05 92 1014.0
20260906103003 23 280 0.0 1.6 0.05 0.05 0.05 92 1014.2
20260906102002 23 116 0.0 1.6 0.05 0.05 0.05 91 1014.4
20260906101003 23 262 1.6 3.2 0.03 0.03 0.03 90 1014.3
20260906100004 24 109 0.0 6.4 0.03 0.03 0.03 90 1014.4
20260906093003 25 250 0.0 0.0 0.00 0.00 0.00 89 1013.5
20260906092002 25 250 0.0 1.6 0.00 0.00 0.00 86 1013.3
20260906091002 26 250 0.0 0.0 0.00 0.00 0.00 87 1013.5
20260906090002 26 254 0.0 1.6 0.00 0.00 0.00 87 1013.2
20260906085002 26 252 0.0 1.6 0.00 0.00 0.00 87 1013.2
20260906084002 26 259 0.0 1.6 0.00 0.00 0.00 88 1013.4
20260906083002 26 259 0.0 1.6 0.00 0.00 0.00 89 1013.5
20260906082002 26 272 0.0 3.2 0.00 0.00 0.00 89 1013.7
20260906081002 26 5 0.0 0.0 0.00 0.00 0.00 89 1013.6
20260906080002 26 5 0.0 0.0 0.00 0.00 0.00 89 1013.8
20260906075003 26 5 0.0 0.0 0.00 0.00 0.00 88 1013.8
20260906074003 26 5 0.0 0.0 0.00 0.00 0.00 88 1013.7
20260906073002 26 6 0.0 0.0 0.00 0.00 0.00 88 1013.6
20260906071002 26 6 0.0 0.0 0.00 0.00 0.00 87 1013.6
20260906070002 26 6 0.0 0.0 0.00 0.00 0.00 87 1013.5
20260906065002 26 316 0.0 0.0 0.00 0.00 0.00 87 1013.4
20260906064002 26 316 0.0 0.0 0.00 0.00 0.00 87 1013.9
20260906063002 26 316 0.0 0.0 0.00 0.00 0.00 87 1013.6
20260906062003 26 316 0.0 0.0 0.00 0.00 0.00 87 1013.9
20260906061002 26 316 0.0 0.0 0.00 0.00 0.00 87 1014.1
20260906060004 26 316 0.0 0.0 0.00 0.00 0.00 87 1014.0
20260906055003 26 316 0.0 0.0 0.00 0.00 0.00 87 1014.0
20260906054003 26 316 0.0 0.0 0.00 0.00 0.00 87 1014.1
20260906053003 26 316 0.0 0.0 0.00 0.00 0.00 86 1014.1
20260906052003 26 316 0.0 0.0 0.00 0.00 0.00 85 1014.1
20260906045003 26 316 0.0 0.0 0.00 0.00 0.00 85 1014.4
20260906044004 26 316 0.0 0.0 0.00 0.00 0.00 85 1014.4
20260906043004 26 316 0.0 0.0 0.00 0.00 0.00 84 1014.4
20260906042004 26 316 0.0 0.0 0.00 0.00 0.00 84 1014.5
20260906040006 26 316 0.0 0.0 0.00 0.00 0.00 83 1014.3
20260906035004 27 316 0.0 0.0 0.00 0.00 0.00 82 1014.1
20260906034004 27 283 0.0 0.0 0.00 0.00 0.00 82 1014.1
20260906033004 27 283 0.0 1.6 0.00 0.00 0.00 81 1014.5
20260906032004 27 282 0.0 0.0 0.00 0.00 0.00 82 1014.2
20260906031004 27 282 0.0 0.0 0.00 0.00 0.00 82 1014.3
20260906030006 27 282 0.0 0.0 0.00 0.00 0.00 81 1014.0
20260906025004 27 282 0.0 0.0 0.00 0.00 0.00 80 1014.2
20260906024005 27 282 0.0 0.0 0.00 0.00 0.00 80 1014.2
20260906023004 27 285 0.0 0.0 0.00 0.00 0.00 79 1014.0
20260906022004 27 253 0.0 0.0 0.00 0.00 0.00 79 1014.2
20260906021004 27 253 0.0 0.0 0.00 0.00 0.00 79 1014.0
20260906015006 28 253 0.0 0.0 0.00 0.00 0.00 78 1013.9
20260906013004 28 219 0.0 1.6 0.00 0.00 0.00 77 1013.1
20260906012003 28 133 0.0 1.6 0.00 0.00 0.00 77 1013.1
20260906010006 28 272 0.0 0.0 0.00 0.00 0.00 77 1012.8
20260906005003 29 267 0.0 1.6 0.00 0.00 0.00 77 1012.6
20260906004004 29 267 0.0 1.6 0.00 0.00 0.00 76 1012.7
20260906003004 30 278 0.0 3.2 0.00 0.00 0.00 76 1012.5
20260906002004 30 88 0.0 4.8 0.00 0.00 0.00 75 1012.5
20260906001005 30 276 0.0 4.8 0.00 0.00 0.00 75 1012.6
20260906000005 30 282 0.0 3.2 0.00 0.00 0.00 74 1012.5
20260905235003 31 101 0.0 1.6 0.00 0.00 0.00 73 1012.5
20260905234004 31 291 1.6 4.8 0.00 0.00 0.00 72 1012.6
20260905233003 31 280 1.6 6.4 0.00 0.00 0.00 70 1012.6
20260905232004 32 25 1.6 4.8 0.00 0.00 0.00 68 1012.6
20260905231004 33 278 0.0 3.2 0.00 0.00 0.00 65 1012.5
20260905230003 33 105 0.0 4.8 0.00 0.00 0.00 64 1012.5
20260905225003 33 330 1.6 6.4 0.00 0.00 0.00 63 1012.5
20260905223003 35 329 0.0 3.2 0.00 0.00 0.00 58 1012.2
20260905222005 35 288 0.0 4.8 0.00 0.00 0.00 56 1012.3
20260905221004 35 130 0.0 4.8 0.00 0.00 0.00 52 1012.2
20260905220003 35 237 0.0 1.6 0.00 0.00 0.00 46 1012.2
20260905215004 35 167 0.0 1.6 0.00 0.00 0.00 45 1012.2
20260905214004 35 185 0.0 3.2 0.00 0.00 0.00 47 1012.1
20260905213004 36 122 1.6 6.4 0.00 0.00 0.00 47 1012.3
20260905212003 36 148 0.0 1.6 0.00 0.00 0.00 44 1012.4
20260905211003 37 257 0.0 4.8 0.00 0.00 0.00 44 1012.4
20260905210003 37 93 1.6 4.8 0.00 0.00 0.00 42 1012.4
20260905205003 37 121 0.0 4.8 0.00 0.00 0.00 43 1012.5
20260905204003 37 244 1.6 8.0 0.00 0.00 0.00 43 1012.5
20260905203003 37 98 0.0 9.7 0.00 0.00 0.00 43 1012.6
20260905202003 37 139 0.0 3.2 0.00 0.00 0.00 45 1012.7
20260905201005 37 125 0.0 6.4 0.00 0.00 0.00 44 1012.7
20260905200003 37 124 3.2 8.0 0.00 0.00 0.00 43 1012.8
20260905195004 37 127 1.6 9.7 0.00 0.00 0.00 42 1012.7
20260905193003 37 129 1.6 6.4 0.00 0.00 0.00 44 1013.1
20260905192003 37 228 1.6 6.4 0.00 0.00 0.00 45 1013.3
20260905191003 37 132 0.0 3.2 0.00 0.00 0.00 45 1013.5
20260905190006 37 86 1.6 6.4 0.00 0.00 0.00 49 1013.5
20260905184003 36 345 0.0 1.6 0.00 0.00 0.00 50 1014.0
20260905182003 35 153 1.6 4.8 0.00 0.00 0.00 52 1014.4
20260905181003 36 86 1.6 4.8 0.00 0.00 0.00 53 1014.5
20260905180004 36 159 1.6 4.8 0.00 0.00 0.00 52 1014.6
20260905175003 35 277 0.0 3.2 0.00 0.00 0.00 54 1014.8
20260905172003 35 254 0.0 3.2 0.00 0.00 0.00 53 1015.2
20260905171004 35 143 1.6 6.4 0.00 0.00 0.00 55 1015.5
20260905170005 35 259 1.6 3.2 0.00 0.00 0.00 55 1015.5
20260905165003 34 249 1.6 6.4 0.00 0.00 0.00 55 1015.7
20260905164003 34 246 1.6 4.8 0.00 0.00 0.00 56 1015.7
20260905163002 35 257 0.0 6.4 0.00 0.00 0.00 55 1015.8
20260905162003 34 195 1.6 4.8 0.00 0.00 0.00 58 1015.9
20260905161002 33 198 0.0 4.8 0.00 0.00 0.00 59 1015.9
20260905160005 33 101 1.6 4.8 0.00 0.00 0.00 63 1015.9
20260905155003 32 274 0.0 4.8 0.00 0.00 0.00 64 1015.9
20260905154004 32 157 0.0 3.2 0.00 0.00 0.00 68 1015.8
20260905153004 31 124 1.6 9.7 0.00 0.00 0.00 69 1015.8
20260905152004 31 139 1.6 6.4 0.00 0.00 0.00 71 1015.9
20260905151003 30 243 1.6 6.4 0.00 0.00 0.00 70 1015.9
20260905145003 30 139 0.0 4.8 0.00 0.00 0.00 74 1015.9
20260905144002 30 233 0.0 3.2 0.00 0.00 0.00 75 1015.9
20260905140004 28 163 1.6 6.4 0.00 0.00 0.00 78 1016.2
20260905134002 28 134 0.0 3.2 0.00 0.00 0.00 78 1016.2
20260905133002 28 225 0.0 3.2 0.00 0.00 0.00 77 1016.2
20260905132002 28 129 0.0 1.6 0.00 0.00 0.00 77 1016.2
20260905125003 27 108 0.0 0.0 0.00 0.00 0.00 81 1016.4
20260905124003 26 108 0.0 0.0 0.00 0.00 0.00 88 1016.3